Find Starlink 11313

NORAD ID: 61255 Int'l Des: 2024-175 Owner: SPXS Country: US Constellation: starlink operational
LEOCIRCULAR

現在のビュー

3D地球を読み込み中...

About Starlink 11313

Starlink 11313 (NORAD 61255) is a starlink constellation satellite (v2 mini d2c) launched Sep 25, 2024 by SPXS of US. It operates in LEO, CIRCULAR orbit with a mass of 960.00 kg.

Starlink 11313について

説明を読み込み中...

次回通過

Passes for default location (London). Set your location on the main map for personalized predictions.

高度履歴

Loading altitude history...

軌道要素

1 61255U 24175N 26195.12592307 .00000261 00000-0 70201-5 0 9994
2 61255 53.1591 153.0600 0001256 111.1549 248.9603 15.69694252103225
Epoch: Jul 14, 2026 • Age: 26 hours

現在のステータス

高度 369.2 km
遠地点 / 近地点 N/A
速度 7.69 km/s
衛星直下点 -28.90°S, 117.77°E
打ち上げ日 Sep 25, 2024
運用期間 1.8 years
タイプ internet

技術仕様

分類 Payload
質量 960.00 kg
乾燥質量 910.00 kg
総質量 960.00 kg
長さ 0.30 m
直径 4.10 m
スパン 29.00 m
形状 Box + pan
製造者 SPXS
バスタイプ Starlink V2MD
フェーズステータス In Orbit
所有者/国 SPXS/US

Most Searched